Location: Caltech
(34.1382°N, 118.1253°W)
Time: 14:25:59
(UTC-07:00)

Cosmos 1758 Rocket - Visible Passes

Search period start: 31 July 2015 00:00
Search period end: 10 August 2015 00:00
Orbit: 602 x 638 km, 82.5° (Epoch: 30 July)

Date Brightness Start Highest point End Pass type
(mag) Time Alt. Az. Time Alt. Az. Time Alt. Az.
01 Aug 6.3 00:17:17 10° N 00:18:13 16° N 00:18:13 16° N visible
02 Aug 6.5 00:35:03 10° NNW 00:35:42 14° NNW 00:35:42 14° NNW visible
02 Aug 6.3 23:15:30 10° NNE 23:16:01 12° NNE 23:16:01 12° NNE visible
03 Aug 6.2 23:32:31 10° N 23:33:31 16° NNE 23:33:31 16° NNE visible
04 Aug 6.2 23:49:57 10° N 23:51:02 17° N 23:51:02 17° N visible
06 Aug 6.4 00:07:46 10° NNW 00:08:33 15° NNW 00:08:33 15° NNW visible
06 Aug 6.1 22:48:04 10° NNE 22:48:55 14° NNE 22:48:55 14° NNE visible
07 Aug 6.7 00:26:02 10° NW 00:26:05 10° NW 00:26:05 10° NW visible
07 Aug 5.9 23:05:09 10° N 23:06:28 19° NNE 23:06:28 19° NNE visible
08 Aug 6.0 23:22:38 10° N 23:24:02 20° N 23:24:02 20° N visible
09 Aug 6.1 22:04:12 10° NE 22:04:26 11° NE 22:04:26 11° NE visible
09 Aug 6.3 23:40:30 10° NNW 23:41:36 17° NNW 23:41:36 17° NNW visible
